Theta_e
334 324 319 318 310 310 306 308 314 317 318 324 326 327 326 328 321 317 347 350 355 358 360 360 362 362 362 361 360 360 360 360 360 360 360 360 361 361 360 360 359 356 355 353 354 355 354 353 353
327 320 317 313 307 303 305 310 312 315 316 318 325 326 324 325 340 341 342 353 356 358 359 357 362 361 361 361 359 359 359 359 359 359 360 361 361 361 359 360 359 356 353 353 352 353 353 353 353
321 315 312 310 307 304 305 310 313 315 317 316 326 332 330 332 342 342 350 354 357 357 358 360 362 361 361 360 359 358 358 359 359 359 359 360 360 360 361 360 359 355 353 352 352 352 351 351 350
316 315 311 306 306 308 308 312 313 314 317 318 328 327 337 348 346 349 353 354 354 354 355 361 361 360 361 360 359 358 358 358 359 359 359 358 357 358 358 358 356 353 351 351 351 351 350 349 348
310 311 305 304 306 307 310 312 314 313 314 317 330 326 335 346 351 352 352 352 351 352 355 358 361 360 361 360 359 358 358 357 358 358 358 358 357 357 357 356 353 351 350 350 350 350 349 348 347
307 308 302 302 305 309 310 314 314 314 315 322 326 329 337 348 349 351 352 351 351 352 355 358 360 360 360 360 359 358 358 358 358 358 358 358 358 357 356 355 352 351 350 349 349 350 350 350 349
306 302 303 304 306 308 310 314 313 313 315 324 332 327 338 342 348 352 352 353 353 354 355 357 356 359 360 359 358 357 357 357 357 357 358 358 358 357 356 354 353 352 351 350 350 350 351 351 350
309 305 301 303 304 308 310 310 312 315 318 337 338 328 332 343 350 351 353 352 352 353 355 357 358 356 356 356 358 357 357 357 357 357 357 357 357 357 355 354 353 352 352 351 350 351 352 350 350
307 302 300 302 303 309 309 310 315 323 329 334 336 336 341 348 349 349 347 349 350 352 355 356 356 358 357 356 356 357 356 357 357 357 357 354 352 353 352 353 353 352 353 352 353 352 352 351 350
305 301 302 305 306 306 308 311 314 318 330 332 336 343 346 347 346 343 343 342 345 348 351 354 355 356 356 355 357 357 354 354 354 353 356 354 354 354 351 351 353 354 353 354 354 353 352 350 343
305 301 304 304 306 307 308 310 313 317 323 331 334 340 343 343 343 342 342 344 345 348 349 352 356 357 355 355 357 356 356 356 356 356 357 357 354 353 352 351 349 351 351 349 347 347 345 346 347
301 304 306 305 306 307 307 311 311 313 315 327 341 344 343 341 341 340 340 344 345 346 349 351 353 354 355 356 356 356 355 356 355 355 357 355 353 353 352 350 349 348 346 347 347 343 346 350 350
302 304 305 307 307 306 308 308 312 313 320 339 341 341 340 340 341 343 345 345 347 347 349 351 352 352 355 357 355 355 355 355 355 355 356 355 353 353 352 351 349 346 344 343 345 346 348 349 350
305 305 305 306 307 306 306 307 312 314 329 336 337 338 340 340 341 342 344 345 347 349 349 351 351 353 353 354 356 354 355 354 354 353 354 356 355 354 351 350 348 346 344 343 346 347 348 349 349
304 302 303 304 305 306 307 305 309 316 329 333 336 338 339 342 343 343 345 347 349 348 351 350 350 351 351 351 351 351 352 351 352 352 355 356 356 355 354 349 346 345 345 345 344 347 349 348 349
300 302 297 304 305 305 306 303 309 316 317 325 329 330 332 336 341 343 344 347 350 351 349 350 347 347 348 347 347 347 348 349 349 350 351 352 353 353 351 346 346 347 346 345 344 346 344 345 347
299 292 296 299 305 305 305 302 308 314 316 315 317 318 321 324 331 338 342 344 346 348 349 348 348 346 345 346 346 348 354 352 352 353 351 352 350 349 349 347 350 352 348 348 348 348 349 345 350
292 293 296 297 301 304 302 303 308 313 314 314 316 318 318 319 321 324 328 339 343 346 346 347 347 347 346 345 348 349 353 356 356 353 352 353 354 352 353 351 353 352 350 350 351 351 351 350 351
296 295 294 298 302 302 302 304 309 311 312 313 315 316 318 319 322 327 336 339 342 344 345 345 346 348 346 345 344 346 345 347 347 354 358 357 354 352 355 353 353 353 351 352 353 351 350 348 351
294 294 294 298 302 302 303 303 308 311 313 315 315 315 317 319 321 325 337 340 342 343 344 344 344 344 344 343 344 344 346 347 350 348 345 346 348 350 351 351 351 352 350 354 352 350 348 347 350
294 292 293 295 300 302 302 299 303 309 312 314 315 317 318 319 320 322 331 338 340 342 342 342 343 342 342 342 341 343 349 345 338 335 332 336 341 343 344 344 345 345 344 340 341 341 341 339 344
291 296 295 294 296 292 302 291 299 305 308 311 314 315 317 319 320 322 327 333 337 338 339 340 341 344 346 348 347 347 342 333 330 328 328 327 330 330 331 333 335 338 339 340 342 342 342 340 338
293 297 297 296 294 294 297 293 298 303 302 306 312 314 317 319 320 322 326 331 334 336 337 339 342 344 345 343 341 334 330 327 326 325 326 327 327 327 326 327 328 328 327 331 335 339 339 338 335
298 296 296 296 295 288 293 293 293 297 302 307 310 314 315 316 318 321 328 333 333 334 335 337 337 337 337 334 333 331 327 326 322 323 321 322 322 323 325 325 326 327 326 326 326 329 331 333 336
297 294 287 286 286 286 294 294 296 303 305 307 309 310 312 315 317 321 329 330 332 331 332 331 331 329 329 328 328 328 327 328 326 324 321 321 320 320 323 325 325 323 325 325 325 325 325 325 326
294 294 288 281 283 286 294 289 294 304 307 310 312 313 310 312 316 322 329 330 331 330 329 328 327 325 326 325 325 326 327 322 322 324 321 320 319 319 324 323 323 323 323 323 324 320 320 323 321
293 291 296 291 291 288 291 295 300 307 308 310 312 310 308 310 317 322 330 331 330 328 327 327 325 324 324 324 325 325 325 325 322 324 324 320 322 319 320 321 321 321 321 321 322 318 320 321 321
296 298 290 292 284 283 289 291 293 301 304 309 311 311 310 315 321 326 329 330 329 328 327 326 325 323 323 323 324 322 323 323 322 322 321 320 321 320 319 319 320 319 319 318 318 316 317 318 316
294 292 293 294 293 286 286 292 304 305 307 308 311 311 311 317 324 327 328 328 326 325 323 322 322 321 320 321 321 321 320 320 320 320 319 318 319 318 317 317 316 315 315 315 314 314 313 313 314
298 295 296 290 289 293 293 292 308 309 309 310 311 310 314 322 326 327 325 324 323 322 321 320 319 319 319 319 319 318 318 318 317 316 316 317 316 315 313 312 311 311 311 312 311 310 310 309 309
Wind_Speed
11 12 3 2 4 3 4 3 1 6 4 2 3 1 1 4 2 4 3 7 20 20 18 17 16 16 15 16 17 18 16 16 16 16 15 14 14 13 12 10 9 9 10 10 11 10 10 9 8
11 5 0 1 4 6 5 2 6 3 3 7 3 5 4 5 6 10 12 12 21 20 17 17 16 17 16 17 17 16 16 16 16 15 14 13 13 13 12 10 9 10 9 9 9 9 8 8 7
6 2 3 3 3 9 4 5 4 6 7 3 4 4 3 5 6 10 13 20 19 18 16 16 17 18 18 18 18 16 15 15 15 14 13 12 12 11 10 9 8 8 8 8 8 8 8 6 5
1 2 3 5 11 7 3 7 3 8 3 5 5 7 6 8 2 8 19 22 20 17 16 16 15 15 16 18 19 18 16 15 14 13 12 11 11 9 8 8 7 6 7 7 6 6 6 5 4
1 1 4 6 13 3 6 7 7 7 3 3 6 8 4 7 7 16 19 20 22 17 14 15 13 15 14 16 17 18 17 15 14 13 12 10 9 8 7 7 7 6 5 4 4 4 4 3 3
4 2 6 14 12 9 5 8 6 3 3 4 6 6 5 3 9 12 16 19 19 18 15 14 13 14 14 14 15 16 17 16 15 13 11 11 9 7 6 5 5 4 4 3 3 3 3 3 3
6 4 13 8 15 10 6 2 6 0 3 3 3 5 8 9 10 12 14 16 18 17 15 13 13 13 14 14 14 14 15 15 15 15 13 13 12 10 7 5 4 3 3 3 3 4 5 5 5
5 4 10 10 14 20 6 3 4 2 1 2 3 5 6 10 14 14 15 16 17 16 15 13 12 12 12 12 12 13 13 13 12 12 12 10 9 9 9 7 6 4 5 4 5 6 7 7 7
4 8 13 17 11 9 5 7 3 3 3 2 2 1 8 18 17 15 16 15 14 12 13 13 12 12 12 12 12 12 12 10 9 9 9 8 6 8 8 5 4 5 6 6 5 6 8 8 9
10 13 13 6 5 6 5 6 7 4 7 2 8 12 15 17 17 18 18 16 16 16 14 12 12 11 11 8 10 9 9 9 9 9 9 7 6 5 5 4 6 8 8 7 7 7 8 9 6
9 16 7 6 5 3 4 6 2 6 7 7 11 19 17 16 15 16 17 16 16 15 12 13 12 12 12 10 8 6 6 6 6 9 8 7 5 4 5 4 4 4 5 5 5 5 6 7 6
12 9 11 4 3 4 2 1 4 4 1 3 12 15 17 19 17 17 16 17 17 17 15 13 12 11 11 8 9 9 7 7 6 7 8 5 4 5 5 4 4 4 4 5 6 5 6 8 7
16 14 9 7 1 2 1 3 3 6 6 12 15 10 14 14 15 12 13 13 15 16 16 16 14 11 10 9 6 5 6 5 4 4 6 5 5 4 4 5 5 5 5 5 5 5 6 7 8
14 8 12 5 7 0 2 3 4 6 11 14 15 13 12 13 13 11 12 14 14 14 15 13 12 11 10 8 7 4 3 4 4 4 5 7 6 5 5 5 6 7 5 5 5 6 7 7 7
8 16 8 9 5 5 2 3 6 8 13 15 15 13 12 12 12 14 13 13 14 13 11 12 11 9 9 8 4 3 2 2 3 4 7 8 9 7 7 6 7 6 5 7 6 7 6 7 7
10 13 16 16 12 4 9 22 9 9 11 14 14 11 11 12 14 12 10 10 11 9 12 10 9 10 7 5 4 4 4 4 5 5 5 8 9 8 8 6 6 5 5 5 5 6 7 8 7
11 15 22 13 16 8 11 8 10 8 10 10 12 14 13 11 11 11 12 12 11 9 7 8 8 7 7 5 4 5 5 4 4 4 5 8 10 10 8 6 6 5 5 5 6 6 6 8 7
24 15 17 18 11 17 13 6 9 11 9 10 8 7 8 9 9 5 10 11 11 9 6 6 7 7 7 5 3 3 3 1 1 3 4 8 7 9 6 7 6 6 6 7 6 8 7 8 8
18 18 10 13 6 12 13 11 6 11 8 10 8 6 7 7 4 1 3 5 6 6 6 5 6 6 4 3 2 2 2 2 4 5 6 6 6 7 6 5 6 5 7 9 6 7 9 8 7
14 19 14 11 10 11 10 14 5 9 12 12 12 10 10 8 7 3 3 4 5 4 5 5 4 5 4 3 3 2 2 2 5 4 6 6 5 6 3 3 5 6 6 8 7 6 7 6 5
10 18 21 12 9 3 10 9 8 7 7 8 9 7 7 10 8 6 6 5 5 6 7 6 6 5 5 6 4 3 5 5 5 6 6 8 10 11 8 7 5 4 3 4 4 3 5 5 5
9 9 17 19 12 11 8 12 9 11 12 11 12 9 10 9 8 7 7 5 5 5 6 6 6 6 5 7 7 9 8 7 6 6 7 8 14 13 13 12 10 9 6 6 5 4 5 6 8
5 6 13 16 15 9 10 9 13 6 17 17 13 13 13 12 12 11 8 3 6 7 8 9 11 10 10 11 12 11 13 10 7 7 10 11 10 10 10 9 9 9 7 8 8 7 5 3 4
6 6 8 6 6 12 13 14 13 15 13 10 11 12 12 14 13 9 3 6 9 11 12 12 13 12 12 13 14 15 15 11 8 8 7 6 6 6 9 9 8 8 7 7 6 6 6 6 5
14 14 7 8 8 6 8 9 9 8 9 11 12 7 9 14 14 12 12 11 12 14 14 13 15 14 13 14 14 13 13 11 10 7 6 6 5 5 6 6 7 6 6 6 6 6 6 6 5
17 17 6 7 9 9 5 10 7 9 3 3 7 8 8 12 15 17 16 13 15 16 16 15 15 15 13 13 12 10 11 7 7 6 5 4 4 4 4 5 5 5 6 6 6 5 6 6 6
19 13 5 5 2 7 6 3 4 4 7 5 6 7 11 14 16 17 16 16 16 16 16 16 15 14 12 12 10 9 8 8 7 6 4 3 3 3 4 5 5 6 6 6 7 6 7 7 6
15 15 9 2 8 6 6 4 6 12 11 7 6 6 7 11 14 16 16 16 13 14 12 12 11 11 10 8 6 6 6 6 6 4 4 4 3 4 5 5 5 5 6 6 7 6 7 7 7
13 13 5 3 2 7 4 3 5 7 3 5 8 8 5 11 14 15 15 14 13 12 11 10 9 9 7 6 5 5 4 5 4 5 5 6 6 6 7 7 7 7 8 9 9 10 11 11 11
12 15 9 9 8 0 2 2 2 4 2 5 9 7 4 10 15 16 16 15 13 13 11 10 7 7 6 5 4 4 4 4 4 5 6 6 6 6 6 7 8 9 10 10 11 13 13 15 15
Wind_Direction
311 321 304 253 242 253 240 219 286 189 189 105 48 197 150 49 37 35 103 134 136 136 145 149 143 140 135 123 121 121 121 120 119 120 123 123 124 127 123 119 120 122 122 124 125 127 126 122 120
315 319 262 135 241 211 211 218 222 163 343 310 205 208 189 82 70 110 131 143 140 138 145 148 143 139 138 133 125 122 122 122 119 122 124 127 130 135 133 130 130 130 131 133 132 133 130 133 134
297 336 251 233 204 215 219 161 227 291 308 233 127 51 79 49 82 130 128 140 137 140 146 145 142 141 143 137 130 127 125 125 123 125 126 127 128 131 129 128 132 135 137 139 141 142 142 145 141
260 164 129 232 208 222 275 152 282 318 87 175 141 112 82 10 268 146 143 144 139 143 147 138 137 139 143 137 134 134 133 130 130 129 130 133 133 133 131 131 130 139 145 149 152 149 151 157 161
52 167 196 223 230 244 251 262 292 310 296 284 181 120 73 29 74 136 145 147 138 142 143 142 134 136 143 138 137 136 136 137 139 141 143 142 143 145 147 142 141 146 152 167 170 171 172 177 184
172 251 192 214 221 232 238 259 269 285 333 323 173 108 94 102 133 144 146 148 142 139 142 143 137 138 144 140 142 141 142 146 148 149 151 154 158 160 162 148 157 161 174 189 218 232 243 247 262
216 198 200 211 217 236 218 228 253 251 308 56 346 123 121 135 133 143 143 140 138 136 142 148 153 149 144 145 149 147 149 155 158 158 163 167 170 171 176 177 185 199 210 226 248 260 264 269 278
204 215 196 207 204 222 176 241 280 316 116 79 359 180 164 155 137 136 141 142 142 145 150 154 157 160 161 158 155 153 161 164 161 162 168 172 173 181 190 189 193 214 249 252 262 273 275 282 290
151 212 208 203 188 196 166 197 140 47 174 69 341 128 128 139 135 137 144 144 141 148 156 159 166 173 173 165 164 161 168 163 163 170 179 171 197 199 198 193 190 217 248 262 266 277 287 296 279
201 212 207 190 189 162 164 202 159 186 151 138 116 116 132 146 150 155 162 157 154 161 167 170 178 181 172 168 168 171 173 185 187 190 188 199 201 210 230 221 217 228 238 258 258 269 277 266 284
187 216 189 211 181 180 149 163 185 172 203 210 188 149 149 152 160 169 167 164 163 169 179 185 183 183 178 172 174 183 188 187 195 198 198 195 201 216 229 230 227 236 223 260 255 263 263 281 286
195 203 192 169 159 139 146 72 154 212 42 225 164 151 153 162 172 174 173 168 170 178 186 188 190 189 191 181 186 184 192 190 192 207 209 206 210 213 236 253 251 246 236 248 250 268 276 274 278
210 181 186 203 90 101 237 74 178 130 115 132 141 160 168 168 172 178 177 171 175 186 191 193 188 191 193 195 194 207 189 195 201 208 208 218 237 244 255 260 263 253 254 249 259 268 281 285 283
184 185 184 187 202 64 145 72 265 128 141 141 155 167 175 175 175 168 179 177 188 194 199 191 193 192 189 188 197 198 196 186 209 214 206 214 234 236 247 258 262 262 259 257 270 275 283 282 283
174 198 175 192 175 194 132 209 218 132 154 152 166 170 176 182 179 190 185 189 192 202 196 195 193 196 194 190 200 178 200 200 225 226 216 225 227 228 239 253 256 266 259 255 260 266 264 276 271
172 201 202 187 183 185 197 202 200 152 149 164 168 177 188 200 202 201 203 208 208 200 198 195 190 191 191 173 182 203 189 201 224 225 237 241 245 238 239 236 249 270 270 284 288 288 285 276 279
188 197 205 182 202 165 203 188 205 166 158 162 166 169 175 185 205 215 218 216 207 204 198 189 182 183 166 155 179 193 187 211 218 210 230 237 243 236 242 245 258 254 261 256 247 258 262 279 278
188 193 196 197 183 203 187 188 185 173 173 197 187 191 188 196 206 191 212 217 223 212 179 162 164 142 134 128 120 119 142 175 241 242 247 253 245 255 248 262 258 250 255 255 254 266 265 268 279
202 196 188 198 184 183 193 186 206 169 177 181 195 191 219 235 253 264 157 193 209 197 193 180 169 165 165 157 191 186 180 29 333 332 331 310 288 270 248 260 273 267 268 276 273 277 277 279 260
179 191 194 179 160 189 175 185 205 194 191 193 190 194 212 224 228 210 184 177 175 144 144 137 147 155 176 177 183 197 172 48 57 43 32 24 31 31 15 331 317 298 294 291 289 271 283 269 248
183 194 192 165 161 100 153 189 200 222 244 213 204 223 227 224 211 223 199 198 162 154 143 147 156 166 185 195 170 175 127 87 77 64 60 54 63 62 55 45 25 5 1 337 342 314 280 282 282
141 189 180 193 178 190 217 206 213 193 204 226 220 222 229 243 244 241 234 193 162 148 146 140 133 135 133 143 118 108 105 108 92 92 83 76 57 55 55 55 52 47 35 16 342 313 288 276 278
141 170 158 183 197 193 189 228 193 204 221 214 217 218 221 225 228 229 228 168 110 125 126 121 117 110 110 112 116 111 110 118 111 91 69 61 60 58 56 54 52 47 38 33 19 9 345 310 283
172 128 88 109 149 201 201 222 209 211 213 213 225 221 215 223 220 216 190 141 119 119 118 119 113 110 116 112 110 111 112 112 105 93 86 74 65 57 44 42 39 37 31 25 13 7 13 353 329
187 178 152 177 194 194 178 200 237 201 205 225 223 227 215 213 209 196 177 168 144 133 127 124 122 117 117 115 116 119 117 111 107 99 82 75 64 52 42 37 32 27 21 14 4 358 350 349 337
180 184 180 178 181 163 160 220 207 224 177 233 255 253 233 210 200 193 181 167 152 142 139 136 133 130 131 126 124 124 124 115 109 96 90 81 68 52 28 25 20 13 6 358 348 328 331 333 329
186 199 141 106 86 172 185 183 228 210 220 228 224 225 222 210 201 190 176 166 157 150 149 145 139 138 138 135 139 135 128 133 126 117 110 92 57 34 17 5 1 3 1 354 345 339 332 328 323
180 181 193 198 173 176 169 232 236 198 211 243 264 252 217 207 194 180 172 162 156 148 140 138 137 138 134 131 123 121 115 102 105 111 85 61 42 7 360 0 4 4 3 357 341 334 331 323 319
156 173 187 176 285 191 197 197 214 194 173 272 295 304 240 194 184 170 162 151 143 138 136 130 140 133 123 111 99 102 101 92 80 62 31 13 5 2 3 357 351 348 341 338 329 322 311 311 306
173 181 172 188 190 283 359 242 142 158 279 287 291 298 228 185 170 160 149 146 149 147 144 138 125 132 123 120 104 99 82 69 59 51 29 16 16 7 356 342 332 327 322 319 315 311 311 306 299